Location: Newark
(37.6833°N, 14.0333°E)
Time: 06:14:03
(UTC+00:00)

Envisat - Visible Passes

Search period start: 18 November 2019 00:00
Search period end: 28 November 2019 00:00
Orbit: 764 x 766 km, 98.1° (Epoch: 17 November)

Date Brightness Start Highest point End Pass type
(mag) Time Alt. Az. Time Alt. Az. Time Alt. Az.
18 Nov 5.7 05:01:15 10° NE 05:05:21 24° E 05:09:25 10° SSE visible
18 Nov 3.9 16:14:02 10° SE 16:18:15 27° ENE 16:22:28 10° NNE visible
18 Nov 4.8 17:52:36 10° SSW 17:57:07 32° W 18:01:39 10° NNW visible
19 Nov 3.2 17:15:11 10° S 17:20:14 75° WSW 17:25:20 10° NNW visible
20 Nov 3.2 16:38:43 10° SE 16:43:34 47° ENE 16:48:25 10° N visible
20 Nov 5.7 18:19:25 10° SW 18:22:48 18° W 18:26:12 10° NW visible
21 Nov 5.9 04:50:25 10° NE 04:53:59 19° E 04:57:32 10° SE visible
21 Nov 4.3 17:41:02 10° SSW 17:45:47 41° W 17:50:35 10° NNW visible
22 Nov 2.9 17:03:54 10° SSE 17:08:58 85° ENE 17:14:04 10° NNW visible
23 Nov 5.0 05:15:04 10° NNE 05:19:39 34° E 05:24:14 10° SSE visible
23 Nov 3.5 16:27:43 10° SE 16:32:21 37° ENE 16:36:59 10° N visible
23 Nov 5.3 18:07:27 10° SW 18:11:25 23° W 18:15:25 10° NW visible
24 Nov 6.1 04:39:49 10° ENE 04:42:36 15° E 04:45:22 10° SE visible
24 Nov 3.8 17:29:32 10° S 17:34:29 53° W 17:39:27 10° NNW visible
25 Nov 2.9 16:52:42 10° SSE 16:57:43 67° ENE 17:02:46 10° N visible
25 Nov 6.1 18:35:06 10° WSW 18:37:10 12° W 18:39:15 10° WNW visible
26 Nov 5.4 05:04:03 10° NE 05:08:19 27° E 05:12:33 10° SSE visible
26 Nov 3.8 16:16:49 10° SE 16:21:09 29° ENE 16:25:30 10° N visible
26 Nov 4.9 17:55:42 10° SSW 18:00:05 29° W 18:04:29 10° NW visible
27 Nov 6.4 04:29:47 10° ENE 04:31:13 11° E 04:32:37 10° ESE visible
27 Nov 3.3 17:18:08 10° S 17:23:11 68° WSW 17:28:16 10° NNW visible
